Погода в Коммунаре

Россия / Санкт-Петербург и Ленинградская область     59°37′17″N   30°23′36″E
темп.,
°C
ветер,
м/с
пор.,
м/с
влажн.,
%
обл.,
%
осадки,
мм/ч
давл.,
гПа
погр.,
м
4 марта, чт
чт400:00+1сз61190100 1.1 1001891
03:00−2сз5118483 1.2 1003626
06:00−4сз410860 0.0 1002429
09:00−4сз39890 0.0 1002459
12:00−2сз478183 0.0 1003646
15:00−3сз478190 0.1 1004796
18:00−4сз5982100 0.1 1004831
21:00−5сз498388 0.2 1005485
5 марта, пт
пт500:00−6сз388531 0.0 1006359
03:00−7сз389016 0.0 1007310
06:00−8сз389445 0.0 1007357
09:00−8сз379070 0.1 1009385
12:00−6ссз3480100 0.1 1011574
15:00−5ссз3577100 0.1 1013704
18:00−6сз368399 0.0 1014602
21:00−8зсз279280 0.0 1016217
6 марта, сб
сб600:00−8сз279235 0.0 1017221
03:00−9зсз269446 0.0 1017201
06:00−10з25940 0.0 1017155
09:00−8зюз38880 0.0 1016320
12:00−4юз596933 0.0 1013836
15:00−3юз7127067 0.0 10091031
18:00−2юз71592100 1.1 10021277
21:00−2зюз71592100 2.5 9971222
7 марта, вс
вс700:00−1зюз71589100 0.9 9921171
03:00−5зсз51174100 2.8 9921052
06:00−8з4108565 0.2 993653
09:00−9зсз6147469 0.5 9921810
12:00−6зсз7157897 0.3 9911771
15:00−6сз7138598 1.8 9891454
18:00−7сз71191100 0.7 9911114
21:00−9ссз5128291 1.2 997843
8 марта, пн
пн800:00−11ссз4109127 0.0 1001423
03:00−11ссз599058 0.1 1005732
06:00−11ссз51089100 0.1 1007946
09:00−13ссз61087100 0.3 1010747
12:00−12ссз5983100 0.1 1013775
15:00−10ссз5880100 0.1 1015805
18:00−11с4884100 0.1 1017762
21:00−13ссз4108797 0.1 1020519